Location: Waco, TX
(31.5481°N, 97.1672°W)
Time: 00:48:55
(UTC-05:00)

ISS - Pass Details

Date: 16 March 2018
Orbit: 402 x 407 km, 51.6° (Epoch: 25 June)

Event Time Altitude Azimuth Distance (km) Brightness Sun altitude
Exits shadow 05:35:05 - 4° (N) 1,997 -0.1 -26.6°
Enters shadow 06:34:55 -71° 287° (WNW) 12,478 3.6 -14.1°
Maximum altitude 07:13:55 27° 39° (NE) 812 -1.8 -5.8°
